Regional Weather Roundup
Issued by NWS State College, PA

Home | Current Version | Previous Version | Text Only | Print | Product List | Glossary On
Versions: 1 2 3 4 5 6 7 8 9 10 11 12 13 14 15 16 17 18 19 20 21 22 23 24 25 26 27 28 29 30 31 32 33 34 35 36 37 38 39 40 41 42 43 44 45 46 47 48 49 50
000
ASUS41 KCTP 211810
RWRCTP

REGIONAL WEATHER ROUNDUP
NATIONAL WEATHER SERVICE STATE COLLEGE PA
200 PM EDT MON AUG 21 2017

Note: "fair" indicates few or no clouds below 12,000 feet with no
significant weather and/or obstructions to visibility.

* = STATION THAT DOES NOT REPORT PRECIPITATION /E.G. RAIN...SNOW...ETC/
    THUNDER OR FOG.

PAZ002>004-007>009-013>016-020>023-029>032-211900-
WESTERN PENNSYLVANIA

CITY           SKY/WX    TMP DP  RH WIND       PRES   REMARKS
ERIE           SUNNY     80  70  71 W8        30.12F
MEADVILLE      MOSUNNY   82  65  56 SW6       30.16F
FRANKLIN*      MOSUNNY   84  64  51 W8G17     30.16F
NEW CASTLE     FAIR      86  69  56 SW8       30.14F
BEAVER COUNTY  SUNNY     88  64  45 W8        30.16
BUTLER*        CLOUDY    84  68  58 SW8       30.16F
PITTSBURGH INT PTSUNNY   85  68  56 SW12      30.16F
PITTSBURGH     MOSUNNY   82  66  58 SW10      30.16F
INDIANA*       SUNNY     82  70  65 SW10G17   30.20F
LATROBE        PTSUNNY   84  72  65 SW12G23   30.19F
WASHINGTON CO* CLOUDY    82  70  65 SW9       30.18F
$$

PAZ004>006-010>012-017>019-024>028-033>037-041-042-045-046-049>053-211900-
CENTRAL PENNSYLVANIA

CITY           SKY/WX    TMP DP  RH WIND       PRES   REMARKS
BRADFORD       MOSUNNY   80  63  55 W10G17    30.18F
DUBOIS         CLOUDY    82  63  52 SW9       30.18S
CLEARFIELD     CLOUDY    77  69  76 CALM      30.19F
JOHNSTOWN      MOSUNNY   81  64  56 W13       30.23F
ALTOONA        CLOUDY    83  71  67 SW6       30.19F
STATE COLLEGE  LGT RAIN  81  70  69 SW9       30.18S
WILLIAMSPORT   SUNNY     85  70  60 VRB5      30.11F
SELINSGROVE    SUNNY     83  73  72 SE7       30.14F
FT INDIANTOWN  PTSUNNY   83  73  71 S7        30.15F
CAPITAL CITY   MOSUNNY   88  69  53 CALM      30.14F
HARRISBURG     PTSUNNY   86  74  67 SE6       30.14F
YORK           MOSUNNY   86  73  65 VRB3      30.16S
$$

PAZ038>040-043-044-047-048-054-055-060>062-067>071-211900-
EASTERN PENNSYLVANIA

CITY           SKY/WX    TMP DP  RH WIND       PRES   REMARKS
SCRANTON       CLOUDY    83  69  62 SW7       30.16F
MOUNT POCONO   CLOUDY    78  68  71 SW12      30.22F
ALLENTOWN      PTSUNNY   84  70  62 SW7       30.16F
QUAKERTOWN*    PTCLDY    84  72  65 SW8       30.19S
READING        PTSUNNY   85  73  67 SW7       30.15F
LANCASTER      PTSUNNY   87  73  62 SW7       30.16F
COATESVILLE    PTCLDY    82  72  69 VRB6      30.20F
POTTSTOWN      CLOUDY    82  69  64 S3        30.18F
BLUE BELL      PTSUNNY   84  70  61 SW6       30.18F
DOYLESTOWN     PTSUNNY   83  67  58 VRB6      30.16F
WILLOW GROVE   NOT AVBL
NORTH PHILA    PTSUNNY   87  67  51 S9        30.17F
PHILADELPHIA   PTSUNNY   86  68  54 S9        30.17F
$$




USA.gov is the U.S. government's official web portal to all federal, state and local government web resources and services.